Peoria, IL

5:05 PM CDT on April 23, 2018 (GMT -0500)
Greater Peoria Regional

Weather History for KPIA - November, 2012

Change the Weather History Date:

Friday, November 30, 2012

  Actual Average Record
Temperature  
Mean Temperature 46 °F 34 °F  
Max Temperature 57 °F 42 °F 62 °F (1962)
Min Temperature 34 °F 26 °F -1 °F (1929)
Degree Days  
Heating Degree Days 19 31  
Month to date heating degree days 717 702  
Since 1 July heating degree days 1234 1148  
Cooling Degree Days 0 0  
Month to date cooling degree days 0 0  
Year to date cooling degree days 1374 1039  
Moisture  
Dew Point 34 °F    
Average Humidity 70    
Maximum Humidity 89    
Minimum Humidity 50    
Precipitation  
Precipitation 0.00 in 0.10 in 0.81 in (1913)
Month to date precipitation 0.82 3.13  
Year to date precipitation 25.10 34.07  
Snow  
Snow 0.00 in 0.10 in 4.60 in (2008)
Month to date snowfall 0.0 1.1  
Since 1 July snowfall 0.0 1.1  
Since 1 September snowfall 0.0 1.1  
Snow Depth 0.00 in    
Sea Level Pressure  
Sea Level Pressure 30.08 in    
Wind  
Wind Speed 5 mph (South)    
Max Wind Speed 10 mph    
Max Gust Speed 13 mph    
Visibility 10 miles    
Events      
T = Trace of Precipitation, MM = Missing Value Source: NWS Daily Summary

Daily Weather History Graph

Daily Weather History Graph

Search for Another Location

Airport or City:

Astronomy

Nov. 30, 2012 Rise Set
Actual Time 7:02 AM CST 4:32 PM CST
Civil Twilight 6:32 AM CST 5:02 PM CST
Nautical Twilight 5:58 AM CST 5:36 PM CST
Astronomical Twilight 5:25 AM CST 6:09 PM CST
Moon 6:27 PM CST (11/30) 8:34 AM CST (11/30)
Length of Visible Light 10h 30m
Length of Day
9h 29m
Waning Gibbous, 96% of the Moon is Illuminated
Nov 30
Waning Gibbous
Dec 6
Last Quarter
Dec 13
New
Dec 19
First Quarter
Dec 28
Full

Hourly Weather History & Observations

Time (CST) Temp. Windchill Dew Point Humidity Pressure Visibility Wind Dir Wind Speed Gust Speed Precip Events Conditions
12:54 AM 39.9 °F 34.5 °F 30.9 °F 70% 30.07 in 10.0 mi South 8.1 mph - N/A   Clear
1:54 AM 39.9 °F 34.5 °F 32.0 °F 73% 30.07 in 10.0 mi South 8.1 mph - N/A   Mostly Cloudy
2:54 AM 39.9 °F 34.5 °F 32.0 °F 73% 30.06 in 10.0 mi South 8.1 mph - N/A   Mostly Cloudy
3:54 AM 37.9 °F 32.7 °F 30.9 °F 76% 30.06 in 10.0 mi South 6.9 mph - N/A   Partly Cloudy
4:54 AM 36.0 °F 30.3 °F 30.0 °F 79% 30.06 in 10.0 mi South 6.9 mph - N/A   Clear
5:54 AM 35.1 °F 31.0 °F 30.0 °F 82% 30.06 in 10.0 mi South 4.6 mph - N/A   Clear
6:54 AM 35.1 °F 30.1 °F 30.0 °F 82% 30.06 in 10.0 mi South 5.8 mph - N/A   Clear
7:54 AM 36.0 °F 32.1 °F 32.0 °F 86% 30.09 in 10.0 mi SSW 4.6 mph - N/A   Clear
8:54 AM 42.1 °F 38.4 °F 34.0 °F 73% 30.09 in 10.0 mi SSW 5.8 mph - N/A   Clear
9:54 AM 46.9 °F - 34.0 °F 61% 30.09 in 10.0 mi SW 8.1 mph - N/A   Clear
10:54 AM 50.0 °F - 35.1 °F 57% 30.09 in 10.0 mi SW 6.9 mph - N/A   Clear
11:54 AM 52.0 °F - 35.1 °F 53% 30.06 in 10.0 mi WSW 3.5 mph - N/A   Clear
12:54 PM 54.0 °F - 36.0 °F 51% 30.06 in 10.0 mi Calm Calm - N/A   Clear
1:54 PM 55.9 °F - 37.0 °F 49% 30.05 in 10.0 mi South 4.6 mph - N/A   Clear
2:54 PM 55.9 °F - 37.0 °F 49% 30.05 in 10.0 mi South 6.9 mph - N/A   Clear
3:54 PM 54.0 °F - 37.0 °F 53% 30.08 in 10.0 mi South 3.5 mph - N/A   Clear
4:54 PM 50.0 °F - 36.0 °F 59% 30.10 in 10.0 mi Calm Calm - N/A   Clear
5:54 PM 46.9 °F - 36.0 °F 66% 30.12 in 10.0 mi Calm Calm - N/A   Clear
6:54 PM 46.0 °F - 36.0 °F 68% 30.11 in 10.0 mi Calm Calm - N/A   Clear
7:54 PM 43.0 °F 41.3 °F 35.1 °F 74% 30.12 in 10.0 mi East 3.5 mph - N/A   Clear
8:54 PM 43.0 °F 38.8 °F 36.0 °F 76% 30.11 in 10.0 mi East 6.9 mph - N/A   Clear
9:54 PM 39.9 °F 35.8 °F 34.0 °F 79% 30.11 in 10.0 mi ENE 5.8 mph - N/A   Clear
10:54 PM 37.9 °F - 33.1 °F 83% 30.11 in 9.0 mi Calm Calm - N/A   Clear
11:54 PM 35.1 °F 30.1 °F 32.0 °F 89% 30.10 in 8.0 mi ENE 5.8 mph - N/A   Clear